RH
67 56 32 20 21 19 19 18 14 12 11 10 4 1 1 3 68 89 95 99 94 81 74 73 77 75 69 73 93 91 89 89 96 96 90 92 99 97 90 82 89 90 97 98 99 98 87 69 70 78 70 67 77 75
71 67 44 22 21 19 19 19 15 13 11 9 5 3 2 1 11 89 96 100 100 98 99 82 79 73 84 89 98 92 89 93 88 92 95 93 98 90 95 90 82 92 83 82 86 78 75 76 69 68 64 64 69 77
78 73 55 24 22 19 19 21 18 15 11 9 5 4 6 6 5 30 96 100 100 100 100 94 83 82 88 88 85 90 96 96 96 99 98 98 93 96 97 94 88 79 77 78 80 80 75 76 65 65 63 66 69 68
89 82 63 28 23 20 18 21 20 16 11 8 5 11 12 24 23 14 60 98 99 100 99 100 96 91 88 90 88 96 98 98 99 98 99 99 98 99 99 99 93 99 88 86 74 72 74 80 69 65 61 66 73 74
94 94 70 31 24 22 17 20 21 15 10 8 6 24 30 26 40 15 28 96 97 99 100 100 98 97 98 90 88 98 99 97 100 100 98 99 99 99 96 92 69 75 71 83 81 81 72 72 74 67 63 60 68 69
92 95 85 34 26 22 16 20 23 15 11 8 6 24 25 22 52 19 25 96 98 98 98 96 99 98 94 84 81 88 100 100 100 99 99 98 99 99 98 99 72 58 57 59 80 73 74 75 77 72 68 62 65 68
96 95 96 41 28 24 17 23 22 16 10 10 43 42 53 77 53 16 52 97 97 98 97 98 100 90 86 78 81 91 95 100 98 100 98 98 98 99 98 91 89 72 69 65 68 73 70 76 77 74 70 66 64 62
95 96 97 46 30 26 18 26 23 16 8 44 29 71 76 57 40 18 96 96 97 97 98 99 100 92 80 93 94 93 93 96 100 98 99 98 98 99 96 67 70 67 77 73 71 71 71 75 80 77 74 70 71 69
96 96 96 56 32 25 20 28 23 13 18 59 29 57 96 47 18 47 97 97 97 98 99 99 100 100 82 95 99 100 97 99 100 99 100 100 100 94 70 85 89 84 72 69 73 71 69 71 78 79 79 77 87 76
96 95 92 75 35 26 22 29 23 10 46 61 86 82 50 16 28 92 97 97 98 99 88 92 89 88 80 84 99 99 96 100 98 94 97 100 55 68 62 60 72 76 72 77 79 75 70 74 79 79 86 87 79 78
97 95 89 84 34 26 26 29 22 10 52 42 32 23 24 63 95 97 96 97 98 95 88 82 77 91 77 85 95 94 92 96 100 95 96 83 48 44 51 56 60 69 69 67 77 80 82 86 84 83 82 83 83 80
97 94 87 84 41 25 27 29 22 11 45 66 73 88 94 96 95 96 97 98 99 100 92 88 75 81 86 85 86 90 90 89 93 88 83 60 48 48 43 49 63 60 63 65 62 76 92 85 85 81 81 96 89 94
97 92 90 92 38 26 29 30 25 13 49 67 79 93 93 87 88 86 94 94 99 98 88 84 94 90 98 99 94 81 85 95 78 81 61 44 52 41 33 45 58 74 54 56 61 78 99 99 98 87 97 98 96 90
98 93 96 78 36 29 30 34 29 20 35 54 63 74 87 82 77 79 79 79 86 99 96 99 100 98 98 95 96 96 84 73 73 74 50 53 37 37 32 39 56 82 66 55 52 75 89 95 97 95 82 84 85 84
95 94 95 88 38 32 32 37 33 25 10 55 57 66 72 76 79 79 75 79 76 100 100 100 100 97 94 96 91 85 82 73 65 62 66 40 44 42 40 36 49 62 80 53 47 50 55 63 74 81 75 74 83 87
95 93 96 89 38 36 35 39 37 32 11 28 54 61 64 72 80 84 85 90 82 87 100 99 98 92 98 87 93 82 80 60 63 56 52 41 46 44 40 39 37 40 58 62 59 53 54 55 57 68 75 79 84 88
94 95 96 84 39 39 40 42 40 35 10 14 32 51 65 68 71 74 77 81 85 96 100 97 90 99 98 94 88 77 74 55 61 61 53 46 48 47 43 42 39 38 31 44 59 64 68 68 66 68 80 84 86 92
93 96 96 86 50 45 45 47 44 32 19 11 6 18 59 70 72 67 64 70 76 82 93 100 99 99 95 89 84 74 65 64 64 62 62 59 57 55 51 47 45 40 36 32 32 53 69 79 80 77 81 91 94 97
97 96 96 94 75 59 50 51 47 32 29 25 16 17 6 9 22 39 46 49 50 53 72 99 98 92 93 97 94 89 83 76 69 66 67 66 61 58 57 50 46 42 38 35 33 37 58 78 89 89 89 93 96 99
96 96 96 95 91 86 67 49 47 33 38 29 24 19 18 19 18 16 14 10 6 13 38 53 62 75 86 91 96 94 89 91 90 81 74 72 66 62 57 52 52 47 44 40 39 40 57 87 99 96 97 100 100 98
96 96 96 95 95 95 81 55 51 46 39 32 28 30 27 21 22 23 23 21 17 13 10 8 7 8 18 32 49 70 77 79 79 91 90 77 82 81 72 59 56 50 54 54 48 45 57 95 97 98 99 99 95 97
96 96 96 96 96 95 89 67 58 52 49 45 43 39 29 22 24 25 26 20 15 12 10 9 8 8 7 6 6 6 8 12 26 48 60 70 80 89 91 77 58 58 59 59 54 51 63 100 99 97 99 100 98 98
96 96 96 96 95 93 70 68 62 57 51 46 42 34 29 27 28 30 26 19 14 13 12 12 11 10 8 8 8 8 9 10 13 18 25 37 56 73 84 92 79 68 67 61 58 56 65 96 100 99 99 98 98 98
96 96 96 95 94 82 75 64 62 57 51 43 39 34 31 30 32 31 28 19 15 13 11 9 8 8 10 12 16 20 25 25 23 21 32 41 53 68 74 92 96 85 74 67 63 63 66 92 99 98 98 99 98 98
96 95 96 96 94 88 76 67 60 54 47 42 36 31 29 32 36 36 30 12 14 14 12 11 12 12 11 11 11 12 12 14 24 33 44 52 57 71 76 91 95 97 95 81 72 70 69 81 98 97 98 98 98 97
95 96 94 91 83 76 66 58 53 51 48 42 33 32 36 37 41 36 25 17 16 19 22 26 24 16 12 13 13 14 18 20 12 13 42 61 64 64 68 84 96 96 97 97 92 77 78 82 98 98 98 97 97 96
95 91 84 80 70 66 62 56 51 48 44 42 42 40 39 42 35 21 16 20 24 26 32 32 27 15 12 13 20 30 36 38 38 28 18 52 62 64 70 70 91 96 96 96 97 95 90 87 93 99 97 97 96 96
92 82 79 78 80 78 75 76 66 62 60 55 53 50 47 39 35 33 30 28 28 33 32 27 18 15 16 19 32 46 54 56 47 46 27 38 54 57 78 87 97 96 96 96 96 99 100 100 100 100 97 96 96 96
77 78 80 85 94 94 94 88 77 70 60 59 59 55 50 49 36 26 25 28 27 28 23 18 18 17 26 48 60 66 67 69 68 58 34 35 46 60 86 99 96 95 96 96 96 97 99 100 98 96 96 96 95 95
76 80 89 94 94 92 80 73 66 64 65 64 61 58 54 40 25 22 22 24 29 28 22 19 22 41 60 64 68 76 80 72 71 65 39 40 50 67 93 97 96 96 96 96 96 96 97 96 95 95 96 96 95 95
75 90 94 92 81 72 72 71 73 74 76 74 66 58 49 32 20 16 17 22 29 26 21 29 58 67 62 69 75 76 81 84 70 64 54 56 61 79 94 96 96 96 96 96 96 95 97 97 99 99 97 96 95 95
80 89 82 76 70 70 72 71 73 74 71 70 57 47 39 31 21 17 18 26 26 24 30 59 66 69 72 74 77 79 77 82 84 79 79 81 88 95 97 97 96 96 96 96 96 96 96 96 96 96 95 96 96 96
71 69 70 73 72 71 64 60 61 59 46 42 40 37 30 26 20 19 27 28 25 29 57 67 65 70 70 73 78 84 88 87 87 90 95 98 98 96 96 96 96 96 96 96 96 96 95 96 96 96 97 96 96 96
Wind_Speed
17 18 19 20 20 23 27 26 28 30 31 34 33 27 16 18 19 20 17 17 14 17 18 18 19 20 21 14 9 4 4 6 4 7 5 5 4 3 6 7 5 6 6 7 8 6 7 11 16 8 11 9 1 3
17 17 19 20 20 22 26 26 27 31 34 36 34 29 22 17 25 26 24 22 19 15 12 20 18 19 18 17 16 12 9 4 2 3 3 5 7 6 5 5 7 6 11 4 8 5 12 14 10 10 11 9 5 4
17 18 19 19 21 23 26 28 28 31 34 37 37 28 21 15 22 27 29 25 21 13 14 16 19 21 19 19 17 14 11 11 10 10 11 8 9 12 10 9 10 10 12 12 9 5 13 16 11 8 9 6 8 8
17 19 19 19 21 24 26 29 29 31 35 38 36 23 14 13 17 24 27 31 23 16 16 10 17 20 20 16 17 15 15 11 8 12 14 14 14 10 12 13 14 9 8 7 10 9 9 13 8 7 6 3 6 6
18 19 19 19 20 24 26 29 31 33 36 39 33 17 14 17 20 18 25 34 24 20 13 11 13 16 17 14 14 15 15 14 13 14 17 18 20 17 20 25 24 20 13 13 7 13 14 13 8 6 4 2 3 4
21 19 19 19 20 24 26 28 31 35 38 41 31 22 21 22 17 13 22 35 22 25 5 12 12 14 16 15 15 13 13 14 14 20 19 22 16 17 13 16 20 16 15 18 16 13 12 9 7 5 3 2 3 6
23 20 19 18 19 24 26 28 31 36 41 40 31 26 22 17 13 17 22 24 21 20 10 9 7 14 14 15 14 14 15 15 17 19 22 20 19 18 26 32 16 11 10 17 19 16 13 9 8 7 6 4 4 5
21 19 18 16 18 22 25 27 31 37 41 34 26 15 9 8 8 20 18 23 21 20 14 6 5 8 12 11 10 11 11 12 15 17 21 22 21 17 18 15 11 14 15 21 23 22 18 14 11 10 11 8 7 7
19 16 18 15 17 21 22 25 30 36 35 28 18 9 4 3 12 26 16 23 24 12 9 8 5 4 9 7 6 3 8 9 12 17 19 15 19 16 3 5 5 8 11 14 17 18 17 17 15 14 12 12 9 7
15 15 16 15 18 20 20 23 28 33 27 19 12 6 5 8 18 25 12 16 21 11 11 9 9 5 8 6 4 4 4 6 7 10 10 11 17 9 9 18 14 10 8 10 13 16 17 19 17 13 13 14 11 10
16 15 14 13 15 17 17 19 24 26 19 16 10 12 16 20 21 7 7 7 7 9 12 11 11 8 6 3 4 2 3 4 4 5 5 6 7 11 12 10 17 19 11 8 6 6 16 18 17 14 14 14 12 11
14 16 13 13 15 15 14 16 20 20 10 13 17 17 15 7 5 4 6 5 6 6 6 12 12 13 9 5 3 3 4 5 5 6 5 5 7 10 15 12 9 11 23 15 9 8 14 19 16 15 14 15 11 11
15 16 12 12 14 13 11 13 15 16 2 7 5 3 3 3 3 5 6 7 7 12 11 9 12 16 17 11 6 4 4 6 6 5 5 5 10 16 16 12 8 9 14 14 10 8 8 14 17 14 16 14 9 15
16 15 12 13 12 11 10 11 13 12 2 4 3 3 2 3 4 5 9 13 12 14 13 11 9 8 7 7 6 4 5 5 4 5 3 8 9 12 13 9 6 9 11 11 9 8 9 8 9 11 14 16 13 15
17 17 13 14 12 10 8 9 11 10 3 6 5 5 4 4 6 6 7 12 17 10 6 11 13 8 8 6 5 6 4 5 5 2 5 4 6 10 13 10 5 4 11 10 11 9 8 10 13 15 16 17 17 18
19 18 14 16 14 11 8 8 9 9 6 7 7 5 8 7 5 5 6 10 13 14 6 12 9 6 7 5 6 7 4 5 4 5 5 2 3 6 11 13 11 5 7 13 14 13 12 11 12 14 16 18 19 19
23 18 17 16 15 12 8 9 9 9 5 5 6 11 11 11 9 8 7 7 9 12 13 10 7 7 7 8 10 10 11 10 6 6 8 9 9 9 7 8 11 10 7 7 13 18 18 16 15 16 18 18 20 22
21 20 19 18 16 12 11 10 8 6 8 7 6 9 15 15 13 12 11 10 10 11 15 22 12 15 11 13 17 18 18 19 19 18 18 19 21 21 20 18 17 14 11 8 9 14 18 20 19 18 19 20 22 24
20 19 22 21 14 12 12 10 10 7 9 9 8 5 6 10 14 18 18 19 18 16 16 21 17 21 29 28 22 21 22 24 24 23 24 21 18 18 19 22 25 21 18 14 11 13 17 19 19 19 20 22 24 25
20 20 25 21 16 13 10 9 10 11 10 10 13 10 9 7 7 9 10 13 15 21 25 27 30 30 27 26 28 32 36 36 34 30 27 23 21 20 19 20 20 17 14 13 12 12 16 18 20 22 23 24 26 24
20 20 25 23 18 15 11 9 10 9 10 11 11 13 14 13 11 13 14 16 17 20 21 23 25 30 36 39 40 41 40 42 40 35 36 40 36 31 23 20 22 20 16 15 13 13 16 19 21 22 25 26 26 22
21 23 24 23 18 14 14 16 14 15 16 17 15 15 16 15 15 16 19 20 23 19 17 20 22 24 27 31 34 37 39 42 42 43 43 43 40 32 31 32 30 27 25 21 19 19 18 21 24 24 25 26 28 25
22 22 23 22 15 12 13 17 18 19 16 17 14 13 15 16 17 19 18 17 18 20 23 24 24 24 25 26 28 30 33 35 36 37 39 41 40 42 36 35 34 33 29 29 25 22 22 24 27 26 28 28 26 27
20 21 21 13 16 12 16 15 17 17 15 15 14 15 16 18 18 22 26 22 19 21 20 20 20 20 22 23 25 27 30 32 32 32 34 36 39 41 40 40 40 36 33 30 31 26 23 25 30 30 29 29 28 30
19 14 11 13 15 17 19 19 19 17 16 15 15 16 13 15 19 24 29 15 13 18 15 16 20 21 23 24 27 29 31 32 34 32 29 34 36 37 39 40 39 43 38 35 32 29 26 27 33 33 32 30 33 31
16 13 11 12 17 16 15 13 13 15 15 15 12 13 14 15 18 14 20 12 10 19 24 23 24 25 26 30 32 32 33 34 34 33 30 32 33 35 35 38 37 35 42 38 35 32 29 28 33 38 34 38 36 30
15 10 18 22 17 15 16 15 12 12 11 11 17 17 15 8 8 8 8 17 26 28 27 26 28 29 31 34 33 34 36 38 38 35 34 33 32 32 33 35 37 34 35 38 39 35 32 31 33 39 41 40 37 32
17 17 21 16 18 18 17 18 16 15 17 20 21 18 10 6 14 23 24 26 29 28 26 28 31 33 34 34 37 37 34 34 35 35 33 32 31 30 30 33 36 35 32 33 38 37 33 31 35 38 41 40 37 34
25 22 19 19 19 19 21 22 21 22 21 20 20 21 23 23 20 22 24 26 26 25 27 30 33 34 36 37 36 36 35 33 31 29 28 29 29 27 29 31 33 36 33 31 36 37 34 32 34 35 39 37 37 36
24 20 20 19 19 21 20 18 17 16 18 19 21 22 22 19 19 21 23 24 24 26 29 30 32 34 34 34 33 32 32 32 28 25 25 28 28 25 28 28 31 32 29 30 30 36 37 34 34 37 39 41 40 35
26 26 24 22 20 18 18 18 19 21 22 21 21 21 21 21 19 18 21 25 24 25 25 28 29 31 32 32 32 30 25 26 25 22 24 26 25 24 25 25 27 27 26 25 28 35 37 34 38 42 42 37 30 26
23 23 21 20 19 16 17 19 20 21 20 19 18 19 20 21 20 24 24 21 20 22 24 23 24 26 30 30 28 24 21 20 20 21 22 21 22 22 23 23 24 26 26 25 26 30 35 40 38 36 32 30 31 29
20 19 19 19 18 17 15 16 16 17 16 15 16 16 17 17 20 23 17 15 17 18 18 18 21 24 26 27 25 21 17 14 15 16 16 16 19 21 21 22 22 25 26 26 28 35 35 34 34 34 34 32 28 25
Wind_Direction
302 313 316 315 326 327 328 340 345 344 344 342 343 340 322 256 225 224 226 206 208 202 199 204 207 213 219 227 222 239 286 268 244 214 228 253 258 261 263 250 214 208 200 210 216 241 274 316 327 346 328 340 14 149
297 307 310 314 320 322 324 335 339 339 338 335 335 329 322 278 239 222 217 219 207 213 220 214 207 199 197 200 207 232 241 245 256 265 240 256 251 258 270 274 237 231 214 221 214 251 288 318 312 319 338 332 215 163
290 302 305 312 317 318 321 329 335 336 334 330 329 322 311 298 255 234 215 215 215 207 220 218 205 200 196 206 227 244 249 250 255 260 275 280 275 265 270 255 249 259 251 248 279 317 306 318 294 307 335 356 182 186
282 297 303 313 316 316 322 325 332 333 331 327 324 321 307 311 305 244 219 211 213 209 217 224 214 209 204 226 226 231 243 251 255 271 291 276 288 257 255 243 246 236 238 244 279 308 325 327 298 294 328 358 158 186
273 288 301 310 315 314 321 323 331 332 328 326 320 309 302 304 303 258 220 204 201 199 209 201 213 211 212 224 235 236 246 254 257 264 277 267 287 290 271 262 255 241 242 247 271 273 295 307 307 286 289 311 178 147
265 279 295 309 317 316 320 324 330 331 326 324 314 299 294 295 287 247 212 199 188 194 158 193 214 207 210 222 235 245 240 247 262 264 261 281 286 284 259 254 255 250 260 254 254 277 305 281 278 261 255 229 210 188
272 276 286 308 316 315 318 326 331 330 326 324 314 299 293 282 255 214 191 199 186 179 177 179 205 207 213 222 228 234 242 244 255 263 267 276 296 276 256 255 245 239 239 226 242 253 289 263 255 229 222 199 207 204
266 274 282 300 314 313 317 326 332 329 330 328 329 323 293 256 232 184 173 184 175 178 175 160 187 204 209 221 236 241 250 253 252 264 271 289 294 280 265 301 280 264 240 232 244 260 268 242 238 227 216 209 213 224
253 261 280 292 314 311 317 331 332 334 335 337 355 8 1 166 168 171 140 169 182 172 146 160 154 172 185 197 203 248 225 254 270 263 279 287 272 253 278 339 293 251 242 246 250 253 245 231 224 225 223 218 225 217
256 259 276 279 308 308 319 332 334 341 340 344 355 27 26 139 152 148 123 163 174 178 188 185 167 132 140 143 162 183 240 245 264 277 290 276 305 0 264 244 248 247 256 267 273 253 243 220 214 225 222 214 206 205
260 258 270 267 299 305 320 330 340 348 350 19 47 74 114 127 129 107 134 149 154 186 210 215 194 172 163 169 158 227 257 261 261 275 273 272 321 348 337 317 252 238 244 259 290 257 198 196 206 215 220 204 207 189
257 249 258 255 288 299 314 328 344 353 14 59 88 89 113 91 72 89 128 126 145 161 195 207 200 202 200 203 219 257 259 252 254 271 272 272 323 332 325 322 303 249 240 248 260 265 236 220 212 212 203 212 210 211
251 245 261 250 277 292 304 325 338 355 51 108 112 35 120 136 155 156 162 167 165 173 196 199 204 208 216 219 226 253 254 249 275 250 258 305 326 325 316 314 259 240 218 224 242 246 243 200 200 197 195 206 225 207
245 243 249 240 271 278 295 315 325 351 239 200 207 238 222 200 191 183 183 188 183 186 193 188 166 160 175 197 208 241 245 266 253 248 287 326 339 349 343 315 305 230 233 231 231 215 210 214 201 197 214 224 227 216
245 244 250 240 260 266 281 298 313 336 308 211 220 238 224 210 168 153 176 203 200 184 195 186 188 180 204 199 210 235 240 238 239 308 308 338 8 9 12 8 327 222 230 237 222 219 219 223 225 228 229 219 205 208
246 239 244 237 250 252 264 279 295 313 286 215 226 221 200 181 185 182 188 199 210 214 191 169 181 192 198 209 214 221 236 229 236 309 294 289 342 5 12 8 4 328 238 241 242 233 233 235 231 224 219 217 209 206
242 241 238 229 245 246 254 265 281 298 243 223 227 210 207 209 205 208 211 218 222 216 191 188 215 207 206 217 212 221 234 246 246 277 279 277 273 287 311 344 350 341 319 267 247 241 242 244 241 229 224 224 215 208
238 244 235 218 237 248 254 254 252 249 245 261 263 234 217 219 221 224 225 228 229 233 226 217 221 211 213 228 232 242 250 259 264 272 277 273 273 279 281 286 297 304 300 294 272 253 242 237 237 234 227 222 222 221
234 239 232 213 224 244 256 257 234 239 239 242 242 246 228 233 241 242 244 241 242 243 232 232 237 244 242 241 244 244 248 251 254 263 271 275 282 285 284 284 279 270 268 265 261 256 248 239 232 230 229 227 227 232
235 240 228 208 213 228 244 244 236 233 250 252 231 237 243 250 253 260 262 258 252 244 242 240 242 247 252 253 252 254 255 254 257 256 253 256 266 272 274 279 272 255 254 251 254 253 248 237 228 223 227 228 228 234
235 233 227 215 214 220 228 238 231 252 246 240 237 252 254 249 264 275 286 284 271 264 264 261 261 259 260 262 262 259 257 258 263 261 257 248 257 262 261 265 252 245 253 265 263 261 247 231 228 231 233 230 228 227
228 228 226 219 210 221 233 237 240 247 253 258 257 259 252 254 271 281 287 286 286 287 275 274 271 269 267 268 270 271 271 269 265 263 263 261 262 262 259 249 242 242 251 259 261 253 242 230 227 230 233 231 227 220
222 222 223 218 210 219 239 235 239 245 243 260 262 247 245 256 273 288 287 285 290 290 285 284 283 281 281 280 277 276 276 275 274 271 267 262 260 259 261 245 236 234 242 256 254 250 240 227 225 226 229 231 226 222
216 218 216 213 212 221 233 234 234 237 241 241 245 245 253 267 284 288 290 295 297 283 287 286 285 287 289 289 286 284 281 280 278 274 269 265 259 255 256 254 239 229 229 237 243 237 234 228 223 225 226 226 226 220
213 217 217 214 210 221 231 238 241 241 241 246 246 251 259 275 284 288 295 303 283 292 289 289 293 296 298 296 295 293 289 282 276 273 270 268 265 259 252 248 252 237 226 224 231 235 233 223 225 221 226 224 219 218
209 214 206 207 212 220 224 229 237 240 247 247 246 251 263 278 285 279 289 286 286 297 299 299 298 297 299 300 300 298 295 292 285 274 266 265 266 262 256 250 244 245 236 225 222 225 224 221 225 219 216 219 216 207
212 210 215 215 213 218 224 230 239 247 247 249 254 259 269 264 263 262 274 297 306 308 306 304 302 300 299 299 298 296 293 289 285 281 265 259 263 266 261 251 243 246 244 239 224 219 221 218 221 224 214 214 211 200
216 219 221 224 222 223 234 247 252 259 261 257 259 259 254 246 282 299 299 299 300 302 301 300 299 300 300 301 300 297 293 288 283 278 273 254 258 263 257 246 237 240 246 238 227 212 212 217 219 224 216 214 203 193
225 227 228 228 233 236 243 249 254 258 259 267 269 269 274 290 296 293 295 298 300 300 300 299 302 304 304 302 301 298 293 286 278 275 265 251 255 259 251 242 238 235 238 231 227 214 204 211 221 212 212 210 202 196
229 229 235 242 243 245 252 259 264 261 263 267 268 271 281 290 290 296 303 305 300 300 301 303 306 306 305 304 301 298 293 285 275 267 253 250 254 254 245 239 235 233 231 225 220 218 200 201 203 199 203 205 200 198
230 236 242 245 251 250 257 264 260 259 263 267 269 275 286 287 291 297 306 304 298 303 307 310 310 311 310 309 305 301 293 280 271 260 252 250 252 247 238 230 230 228 218 213 214 217 205 190 189 194 197 196 192 189
232 237 243 248 250 254 257 256 258 261 265 264 269 282 285 290 299 306 311 302 299 307 314 314 316 318 317 316 311 303 296 283 270 256 250 248 242 235 228 223 222 220 210 204 206 206 190 182 183 187 186 182 187 188
226 230 234 238 246 250 255 257 260 265 266 271 281 282 284 294 308 313 307 309 309 316 316 321 326 330 331 329 325 316 304 286 267 257 247 235 227 220 214 213 213 211 197 186 185 180 177 174 178 177 181 182 182 189